Location: Berg
(48.4333°N, 13.9167°E)
Time: 14:34:55
(UTC+00:00)

Cosmos 1626 - Pass Details

Date: 18 September 2020
Orbit: 490 x 495 km, 82.5° (Epoch: 23 October)

Event Time Altitude Azimuth Distance (km) Brightness Sun altitude
Rises 18:38:18 0° 4° (N) 2,590 6.0 -15.2°
Reaches altitude 10° 18:40:58 10° 24° (NNE) 1,700 4.8 -15.6°
Enters shadow 18:42:57 17° 56° (NE) 1,313 3.9 -15.9°
